CAPE
1222 738 736 405 613 442 680 1322 1292 1375 1432 1291 987 817 756 712 762 791 706 1003 840 931 1087 1165 1100 990 1044 1260 1478 1296 1312 1707 1826 1436 769 118 512 911 884 1158 1071 1219 832
1364 521 869 583 559 611 634 1036 1318 1348 1319 1164 1147 1124 1005 906 933 909 848 1062 1153 1025 937 1009 1065 1126 1024 1185 1314 1371 1413 1734 1616 1597 995 683 852 836 758 883 583 628 481
1457 1257 593 642 428 770 1097 827 1137 1443 1254 1128 1135 1219 1300 1135 1091 1154 1116 979 1021 1107 981 1099 1113 1058 1116 1227 1246 1161 1293 1681 1732 1593 934 552 507 528 362 340 344 407 395
1475 1552 592 646 453 765 694 532 1229 1098 1169 1161 1863 1762 1493 1131 1086 1193 1264 1162 1155 908 1073 1391 1150 1336 1295 1294 1304 1251 1250 1712 1741 1506 1105 950 637 268 190 85 236 397 362
1289 1191 765 599 1485 579 545 706 705 934 1101 1549 1369 1803 1547 1069 919 1007 1139 1158 1203 1150 901 1351 1256 1525 1576 1433 1087 1059 1150 1352 1688 1603 1192 1026 820 404 265 143 161 442 409
1330 1404 964 1067 1137 543 561 526 855 1076 1803 1680 1419 1070 990 987 885 922 1015 1087 1093 1147 1191 987 981 640 1289 1190 951 825 1047 1174 1342 1385 1458 1186 369 716 412 204 276 441 138
1319 1385 1099 1035 1013 823 877 1132 1073 1685 1861 1648 1403 846 750 831 996 903 930 1105 1071 1102 1089 1125 960 1558 738 1396 1161 962 725 1267 935 1229 1417 1047 869 493 198 619 470 311 9
1443 1417 1392 1261 1131 685 1108 1455 1560 1413 1724 1694 1104 863 456 470 758 795 839 959 999 1116 1056 1013 975 1087 1100 510 578 969 1070 1201 1175 1363 1455 953 854 590 568 539 478 182 20
1391 1486 1573 1483 1238 817 931 1306 2346 1421 1727 1136 1237 756 338 182 338 527 752 909 1121 1398 1327 1161 920 1011 973 815 961 864 1571 1467 1123 1523 1493 1084 861 869 695 520 214 28 17
1619 1546 1397 1536 1372 793 1410 1957 1896 1344 1574 1251 645 595 617 425 122 558 710 944 1108 1181 1291 1219 1175 847 708 1281 957 1009 938 1269 1291 1370 1478 1307 1206 735 579 119 8 6 0
1432 1386 1604 1370 1161 1059 2061 1604 1611 1615 1444 775 458 397 421 334 525 518 701 880 912 990 1062 1261 1173 948 561 1117 1057 865 576 794 1187 928 1380 1236 1076 744 121 8 2 3 6
1473 1531 1436 1562 1768 1860 1934 1603 1412 1375 1042 523 348 313 514 396 299 666 831 789 738 709 608 609 1336 1705 1036 917 781 293 280 573 771 535 969 1038 764 372 65 12 6 13 22
1618 1785 1912 2055 2084 1872 1542 1373 1305 825 767 589 712 451 425 328 196 948 907 532 407 356 293 538 1106 1800 1072 895 585 687 280 394 434 341 586 496 425 88 34 98 20 18 27
1940 2041 2007 1877 1736 1671 1321 1011 684 548 665 769 826 826 566 687 241 1027 893 523 592 148 370 434 1333 1313 1593 853 794 122 390 28 14 10 67 107 8 6 9 8 8 19 19
1883 1816 1794 1726 1332 916 765 823 402 671 740 1010 1042 918 1017 995 293 741 107 40 163 101 177 703 1053 1253 1726 1272 447 797 1181 0 1 0 0 0 0 0 0 0 0 5 3
1480 1539 1356 1017 684 526 572 768 587 824 942 1634 846 865 979 858 509 8 106 119 131 626 433 1037 1059 1151 1326 1101 580 1115 886 0 0 0 0 0 0 0 0 0 0 2 13
1236 898 626 511 347 419 625 958 959 834 767 953 776 754 771 844 595 389 351 900 1276 1078 829 879 898 722 850 1143 1118 894 496 301 2 0 0 0 0 0 0 0 0 1 1
521 320 203 132 197 486 722 738 700 593 567 548 709 571 584 745 766 757 1285 924 917 1347 1190 679 47 14 361 682 537 198 151 25 7 1 0 0 0 0 0 0 0 0 0
226 131 189 257 221 393 615 776 629 567 174 480 662 627 528 746 995 1042 1202 1149 1018 1256 1173 171 12 9 10 9 9 8 5 4 5 1 0 0 0 0 0 0 0 0 0
231 250 223 164 314 499 605 759 458 710 740 651 690 701 643 796 882 989 1070 1056 1106 1208 655 49 8 12 5 9 4 2 3 4 2 4 0 0 0 0 0 0 0 0 0
114 221 326 365 531 697 250 628 594 727 260 596 751 729 759 471 459 721 936 1017 992 669 102 9 8 10 6 4 3 5 6 6 5 7 28 13 10 8 1 0 0 0 0
398 404 461 330 530 175 1 1 0 288 639 604 711 624 688 130 1 0 0 290 588 639 231 11 7 6 7 2 3 4 5 3 7 20 1 1 6 1 0 0 0 0 0
453 601 505 283 530 613 1 0 0 100 200 255 196 239 209 58 51 27 0 0 0 0 31 45 8 8 13 13 6 8 5 3 10 8 3 2 2 0 0 0 0 0 0
682 734 544 545 717 46 0 1 4 126 37 32 102 146 169 69 43 52 46 40 16 30 15 11 10 12 7 7 16 3 15 2 8 4 0 1 2 41 14 0 0 0 0
765 623 507 608 686 183 0 0 15 40 11 4 2 29 55 47 1 3 51 15 9 2 0 0 0 0 0 1 0 5 6 3 5 8 6 0 0 8 17 0 0 0 0
579 338 515 643 57 112 1 0 10 30 10 8 13 6 0 0 0 1 19 15 7 6 1 0 0 0 0 0 0 0 0 3 10 22 74 18 10 7 13 7 3 0 0
CIN
-208 -257 -210 -235 -187 -155 -130 -47 -41 -3 -20 -1 -1 -2 -0 -2 -0 -0 -0 -42 -31 -21 -12 -8 -6 -12 -9 -6 -6 -10 -10 -0 -0 -3 -37 -140 -30 -1 -2 -0 -1 -0 -2
-192 -309 -219 -253 -217 -184 -153 -77 -28 -43 -28 -0 -0 -0 -0 -0 -0 -0 -0 -10 -36 -24 -24 -15 -6 -0 -2 -3 -5 -6 -8 -1 -0 -0 -11 -40 -2 -4 -2 -3 -3 -2 -5
-192 -209 -286 -265 -277 -169 -112 -111 -44 -25 -19 -0 -0 -0 -0 -0 -0 -0 -0 -0 -17 -52 -37 -24 -5 -3 -0 -0 -2 -10 -10 -1 -0 -0 -5 -9 -14 -8 -11 -4 -4 -3 -6
-226 -193 -302 -272 -267 -180 -156 -134 -67 -25 -6 -0 -1 -1 -0 -0 -0 -0 -0 -0 -1 -0 -38 -24 -15 -6 -2 -0 -0 -2 -7 -2 -0 -0 -2 -11 -9 -48 -68 -25 -0 -2 -3
-291 -250 -285 -288 -123 -210 -191 -141 -101 -37 -6 -0 -0 -0 -0 -0 -0 -0 -0 -0 -0 -0 -0 -31 -23 -9 -3 -0 -0 -1 -6 -7 -1 -0 -7 -2 -4 -42 -72 -97 -13 -3 -2
-282 -233 -251 -223 -194 -251 -212 -173 -74 -15 -0 -0 -0 -0 -0 -0 -0 -0 -0 -0 -0 -0 -0 -0 -2 -4 -10 -4 -5 -5 -5 -4 -2 -3 -1 -1 -26 -1 -41 -84 -13 -1 -1
-275 -227 -240 -244 -232 -213 -175 -102 -47 -0 -0 -0 -0 -0 -0 -0 -0 -0 -0 -0 -0 -0 -0 -0 -0 -4 -7 -8 -10 -7 -3 -1 -5 -2 -2 -3 -0 -20 -12 -1 -0 -0 -0
-232 -218 -195 -188 -202 -240 -122 -35 -14 -0 -0 -0 -0 -0 -0 -1 -0 -0 -0 -0 -0 -0 -0 -0 -0 -8 -2 -2 -2 -18 -2 -0 -2 -0 -2 -13 -9 -11 -1 -2 -0 -2 -1
-225 -194 -161 -144 -172 -200 -142 -16 -0 -0 -0 -0 -0 -0 -0 -0 -1 -0 -0 -0 -0 -0 -0 -0 -0 -0 -6 -0 -11 -9 -2 -1 -1 -0 -1 -14 -15 -1 -0 -1 -4 -63 -0
-168 -162 -166 -125 -124 -160 -22 -0 -0 -0 -0 -0 -0 -0 -0 -0 -2 -0 -0 -0 -0 -0 -0 -0 -0 -4 -37 -9 -1 -16 -40 -7 -0 -2 -1 -5 -2 -0 -0 -35 -0 -0 -0
-155 -150 -102 -112 -106 -46 -0 -0 -0 -0 -0 -0 -0 -0 -0 -0 -0 -0 -0 -0 -0 -0 -0 -0 -0 -9 -27 -20 -0 -25 -66 -31 -7 -17 -4 -6 -1 -0 -33 -0 -0 -0 -0
-122 -91 -74 -26 -0 -0 -0 -0 -0 -0 -0 -0 -0 -0 -0 -0 -0 -0 -0 -0 -0 -0 -0 -0 -0 -0 -5 -0 -5 -114 -93 -29 -14 -26 -17 -6 -1 -13 -68 -23 -1 -0 -0
-56 -20 -1 -0 -0 -0 -0 -0 -0 -0 -0 -0 -0 -0 -0 -0 -1 -0 -0 -0 -0 -0 -1 -4 -0 -0 -0 -0 -1 -15 -97 -45 -43 -74 -39 -46 -22 -75 -72 -11 -15 -0 -0
-0 -0 -0 -0 -0 -0 -0 -0 -0 -0 -0 -0 -0 -0 -0 -0 -0 -0 -0 -0 -0 -2 -0 -3 -1 -0 -0 -0 -17 -114 -39 -110 -118 -75 -136 -104 -95 -136 -10 -0 -0 -18 -0
-0 -0 -0 -0 -0 -0 -0 -0 -0 -0 -0 -0 -0 -0 -0 -0 -0 -0 -24 -10 -6 -22 -2 -0 -0 -0 -0 -2 -12 -0 -0 -0 -0 -0 -0 -0 -0 -0 -0 -0 -1 -3 -8
-0 -0 -0 -0 -1 -0 -0 -0 -0 -0 -0 -0 -0 -0 -0 -0 -0 -81 -37 -31 -26 -1 -0 -0 -0 -0 -0 -0 -18 -0 -20 -0 -0 -0 -0 -0 -0 -0 -0 -0 -0 -2 -8
-0 -0 -1 -0 -1 -0 -0 -0 -0 -0 -0 -0 -0 -0 -0 -0 -0 -0 -0 -0 -0 -0 -0 -0 -0 -0 -0 -0 -0 -2 -27 -41 -0 -0 -0 -0 -0 -0 -0 -0 -0 -6 -10
-2 -23 -40 -33 -3 -0 -0 -0 -0 -0 -0 -4 -0 -0 -0 -0 -0 -0 -0 -0 -0 -0 -0 -0 -17 -0 -0 -0 -3 -34 -44 -65 -0 -0 -0 -0 -0 -0 -0 -0 -0 -0 -0
-41 -56 -17 -1 -0 -0 -0 -0 -1 -1 -39 -5 -0 -0 -0 -0 -0 -0 -0 -0 -0 -0 -0 -16 -0 -0 -0 -0 -0 -0 -0 -0 -0 -0 -0 -0 -0 -0 -0 -0 -0 -0 -0
-19 -3 -2 -1 -0 -0 -0 -0 -11 -0 -0 -0 -0 -0 -0 -0 -0 -0 -0 -0 -0 -0 -0 -45 -0 -0 -0 -0 -0 -0 -0 -0 -0 -0 -0 -0 -0 -0 -0 -0 -0 -0 -0
-18 -0 -0 -0 -0 -0 -7 -2 -0 -0 -18 -0 -0 -0 -0 -5 -20 -3 -0 -0 -0 -1 -36 -0 -0 -0 -0 -0 -0 -0 -0 -0 -0 -0 -0 -1 -0 -4 -0 -0 -0 -0 -0
-0 -0 -0 -0 -0 -1 -0 -0 -0 -0 -0 -0 -0 -0 -0 -73 -2 -0 -0 -30 -2 -2 -28 -10 -0 -0 -0 -0 -0 -0 -0 -0 -0 -0 -0 -0 -1 -0 -0 -0 -0 -0 -0
-0 -0 -0 -0 -0 -2 -0 -0 -0 -17 -6 -5 -11 -8 -12 -55 -80 -89 -0 -0 -0 -0 -30 -69 -0 -0 -0 -0 -0 -0 -0 -0 -0 -0 -0 -0 -0 -0 -0 -0 -0 -0 -0
-0 -0 -0 -0 -0 -40 -0 -0 -91 -12 -44 -40 -16 -8 -10 -42 -66 -59 -50 -42 -52 -39 -28 -0 -0 -0 -0 -0 -0 -1 -0 -0 -0 -0 -0 -0 -0 -0 -0 -0 -0 -0 -0
-4 -0 -0 -0 -0 -10 -0 -0 -68 -43 -70 -0 -0 -35 -16 -31 -0 -9 -19 -0 -0 -0 -0 -1 -0 -0 -0 -0 -3 -0 -0 -0 -0 -0 -0 -0 -0 -0 -0 -0 -0 -0 -0
-2 -0 -0 -0 -63 -6 -0 -0 -26 -22 -32 -0 -0 -0 -0 -0 -0 -1 -19 -0 -0 -0 -0 -0 -0 -0 -0 -0 -0 -0 -0 -0 -0 -0 -0 -0 -0 -0 -0 -0 -0 -0 -0
Wind_Speed
11 12 11 10 10 10 9 9 8 8 9 9 8 8 8 7 6 6 4 14 10 11 13 13 12 13 13 12 10 10 10 9 14 14 12 13 11 15 15 15 15 13 13
12 14 12 13 12 11 10 9 9 9 7 8 9 9 8 8 8 8 7 8 12 10 10 13 13 14 14 12 11 11 10 9 11 13 13 14 11 11 15 13 14 13 12
14 14 13 13 13 10 12 9 8 5 8 7 8 9 7 9 9 9 8 8 9 14 12 12 13 13 14 11 12 11 10 9 10 11 11 11 9 6 4 4 7 14 14
17 15 13 12 12 11 11 10 8 10 8 7 4 5 7 10 10 8 8 9 6 7 12 13 12 14 13 13 12 12 10 10 10 10 13 16 13 10 9 6 14 14 15
18 14 13 12 13 11 10 9 9 8 7 6 7 7 8 9 7 10 11 11 10 8 6 14 11 11 10 11 10 11 10 10 11 12 13 16 16 16 13 8 9 13 14
16 13 12 13 13 12 10 9 9 8 4 5 6 8 7 8 10 9 10 10 10 10 10 8 8 9 10 10 11 11 11 11 12 12 12 17 18 16 18 17 11 13 22
14 16 12 13 12 12 11 11 9 9 6 5 6 8 9 10 10 9 7 9 10 11 10 7 7 3 9 10 8 8 9 11 12 13 12 17 18 16 13 15 20 24 24
16 14 14 12 14 11 11 9 11 7 5 6 4 5 9 5 6 7 8 8 11 8 9 9 9 8 7 9 11 9 8 10 13 14 12 14 15 17 16 18 19 26 27
14 14 13 11 12 10 10 12 10 9 5 4 6 6 5 4 2 3 5 7 8 7 7 8 9 10 4 3 10 9 9 9 12 14 12 14 16 16 16 17 25 26 27
10 9 12 12 12 11 10 10 8 8 5 6 3 7 10 7 5 3 3 6 6 8 9 7 8 9 4 6 6 8 13 9 10 13 14 16 17 18 21 30 30 28 26
10 13 13 12 12 10 10 11 7 6 5 8 6 6 6 8 7 7 4 3 3 3 5 5 6 6 3 6 8 9 11 9 9 11 12 14 17 23 31 30 29 25 25
8 11 13 12 12 9 9 7 7 7 7 5 5 4 6 5 7 5 5 4 4 3 2 2 6 7 10 11 2 11 11 9 9 9 12 14 22 29 30 29 28 26 24
10 12 13 11 9 9 8 8 7 7 8 7 8 6 5 6 3 5 5 2 2 1 0 1 2 5 6 6 8 8 10 10 9 10 14 17 25 26 27 26 25 23 22
11 14 11 11 10 9 8 7 7 7 8 8 8 8 3 6 4 3 4 3 4 1 1 3 4 6 6 6 6 8 10 10 11 12 14 19 26 24 23 21 20 19 20
11 12 11 10 9 9 9 8 6 8 7 7 8 7 5 5 5 5 3 3 3 3 3 5 4 6 5 6 7 8 10 12 15 15 19 21 23 22 20 18 15 13 13
12 12 11 10 9 9 9 8 7 7 7 6 5 7 6 5 6 5 6 5 3 2 3 5 3 7 6 5 5 6 8 13 20 21 22 20 19 17 15 13 11 10 10
11 10 10 10 9 8 8 7 7 7 9 7 7 7 8 8 7 8 8 7 6 5 7 5 5 4 6 8 8 8 9 10 11 21 21 20 16 15 14 13 11 11 12
10 10 10 9 8 8 8 8 9 8 5 7 9 8 8 7 8 5 5 7 6 6 5 10 4 2 4 8 8 9 7 7 11 16 21 19 17 14 14 13 12 13 13
10 10 9 8 6 6 6 6 4 6 4 8 10 9 8 9 9 7 7 7 5 6 5 8 4 2 3 4 7 8 9 10 8 19 17 17 14 15 13 13 12 11 13
10 8 6 6 4 5 1 3 6 6 7 7 8 8 8 9 9 8 7 7 7 7 9 8 5 4 3 4 7 10 9 9 11 9 13 11 11 13 13 12 12 11 10
9 8 6 5 4 3 2 2 3 6 5 4 6 7 7 3 6 7 5 7 6 8 9 10 6 5 6 5 9 7 11 10 10 10 10 8 7 8 7 10 9 10 9
8 8 6 5 4 4 5 5 7 4 6 6 5 4 7 8 8 4 4 4 8 11 12 10 7 9 8 9 9 10 12 12 7 5 8 6 6 6 5 4 8 9 8
8 7 6 5 4 6 5 2 4 4 2 4 5 7 7 6 9 9 8 10 10 10 10 11 12 12 13 13 13 13 13 10 8 7 11 5 3 6 4 5 7 8 9
7 6 5 5 5 6 5 2 0 6 6 5 4 7 8 9 8 11 12 11 11 11 12 10 11 10 10 11 13 12 11 10 10 7 7 4 4 8 7 7 6 7 8
5 6 5 4 6 7 4 3 5 7 6 6 5 4 8 6 9 9 12 11 11 8 11 14 14 15 13 11 10 14 11 11 9 5 5 4 5 6 7 8 8 9 6
6 5 6 6 6 6 4 4 5 4 7 6 4 7 5 6 7 7 12 11 10 10 13 13 12 13 12 9 10 9 11 11 9 7 8 8 10 9 7 7 7 9 9
Wind_Direction
202 201 205 204 189 208 186 216 197 226 214 225 240 239 248 246 254 261 263 163 205 235 239 235 235 233 233 231 224 214 209 196 204 202 208 206 226 200 202 192 192 187 183
200 202 203 205 204 193 207 198 225 199 217 228 219 241 249 257 238 248 245 179 185 220 235 241 236 236 228 224 216 207 206 191 202 207 195 220 206 204 210 199 195 190 175
210 210 205 204 207 204 199 210 231 216 216 223 243 244 243 258 257 244 242 249 183 193 219 227 234 226 226 220 211 207 200 184 196 205 198 191 186 125 127 215 215 189 163
221 201 212 207 207 201 200 207 195 215 221 223 259 271 249 250 246 257 253 257 243 248 189 203 221 223 225 229 214 205 196 181 177 191 186 185 171 166 186 194 225 190 163
211 219 216 207 206 206 200 195 212 225 215 222 235 243 245 253 258 252 236 234 240 261 249 168 193 208 202 196 208 212 204 189 174 183 195 176 166 177 167 179 244 175 153
206 203 213 213 198 208 195 204 208 203 215 233 252 253 280 279 267 249 245 248 232 232 237 243 183 189 185 185 196 207 204 189 180 189 184 178 175 181 170 190 192 151 129
195 198 214 202 201 205 200 184 196 204 208 223 245 253 255 233 241 253 239 239 236 224 219 197 211 247 174 177 190 206 213 184 188 187 189 182 183 180 173 178 166 142 139
198 200 211 191 196 195 191 180 194 191 207 201 257 289 270 210 220 225 237 230 231 220 220 205 215 200 224 176 185 186 200 181 189 180 186 179 185 174 172 151 147 144 136
196 203 199 195 183 194 181 188 190 194 211 185 246 260 273 262 169 199 235 230 234 216 215 202 182 193 211 230 144 165 178 180 187 180 178 181 177 170 156 141 137 132 128
176 178 187 190 178 189 178 182 185 216 202 216 186 248 270 298 283 220 223 226 221 212 197 188 184 179 184 251 207 95 160 179 182 181 176 177 173 162 143 135 135 138 143
172 177 182 173 181 192 169 184 180 193 207 251 212 175 229 237 235 261 262 197 194 169 185 178 178 161 216 234 182 151 157 173 175 179 172 174 161 151 144 145 148 149 155
163 168 170 172 171 179 170 169 183 200 232 212 250 235 216 219 226 228 247 188 171 142 156 184 167 179 191 200 172 132 151 162 168 168 161 157 147 151 153 154 153 153 158
161 160 163 161 166 163 163 174 180 182 196 208 211 227 230 245 221 221 237 161 162 139 123 187 210 198 215 157 161 155 144 158 156 146 143 139 151 155 154 151 152 156 158
152 153 160 160 154 156 159 166 179 201 190 206 206 233 232 262 212 159 221 178 149 139 129 132 204 187 207 168 122 143 152 149 139 152 130 143 145 149 147 142 153 157 169
132 149 152 149 150 158 167 168 199 200 198 204 213 220 215 240 227 151 137 165 152 146 168 194 160 179 166 163 132 173 153 153 131 136 130 135 142 141 144 150 148 157 152
135 143 142 147 158 168 174 191 184 195 199 212 212 208 209 200 220 133 176 186 199 225 141 165 153 155 150 136 99 141 121 140 133 139 136 134 132 132 137 139 135 147 138
137 144 149 156 164 171 183 193 205 205 211 205 221 205 205 190 204 183 205 181 186 202 165 119 106 115 129 143 122 108 136 136 134 136 134 125 121 131 126 125 129 118 120
143 144 150 157 165 179 187 209 218 216 206 216 210 201 198 188 195 187 212 203 193 173 181 147 106 71 67 111 115 114 111 123 138 135 124 124 129 120 122 119 124 128 123
140 146 152 164 175 192 209 227 243 200 202 244 213 193 201 187 191 197 191 203 193 162 141 135 109 80 68 102 91 85 100 100 107 115 106 101 105 108 111 111 117 124 124
147 152 167 164 157 196 225 220 200 210 214 209 198 198 203 189 188 181 199 193 182 152 124 124 109 110 96 97 106 116 104 109 108 108 82 95 107 97 105 118 114 123 136
157 157 151 135 165 144 101 310 188 168 166 229 196 199 196 139 114 166 182 191 169 138 138 136 123 118 127 130 129 126 114 116 108 116 115 113 116 113 104 92 114 132 135
155 141 129 119 112 79 59 352 325 146 191 200 201 157 109 106 98 82 49 170 146 166 154 145 139 142 136 127 134 131 127 125 122 111 117 89 114 106 119 141 119 132 136
142 145 118 115 87 71 58 31 302 95 133 140 141 145 147 120 153 147 101 99 78 57 138 153 147 151 144 148 138 136 136 130 120 137 124 78 111 122 141 129 112 141 162
155 128 128 96 75 72 61 96 189 111 100 96 114 146 135 146 156 151 151 144 143 140 140 147 143 134 133 140 140 131 116 103 106 109 119 94 172 161 169 136 152 166 177
148 148 114 99 78 90 78 83 86 115 94 92 85 101 134 147 139 169 144 125 110 85 61 97 108 107 105 103 126 126 125 133 126 130 171 114 185 174 177 177 167 190 187
164 148 115 87 67 110 96 89 122 103 115 118 109 129 140 116 135 155 131 132 117 124 115 109 105 97 105 101 93 115 136 139 142 147 180 164 181 172 186 193 180 177 195